weather.gov     
National Weather Service

Terminal Aerodrome Forecast
NWS Homepage
This page is being discontinued on March 12, 2014.
The same data is available at this site. Please update your bookmarks.
Thank you, and we apologize for the inconvenience.
Please send an email to SR-SRH.Webmaster@noaa.gov with any concerns.


Current Version
Previous Version:    01  02  03  04  05  06  07  08  09  10  11  12  13  14  15  16  17  18  19  20  21  22  23  24  25  26  27  28  29  30  
   31  32  33  
[Printable]
658
FTUS42 KGSP 311400 AAC
TAFGSP
TAF AMD
KGSP 311448Z 3115/0112 02005KT P6SM -SHRA SCT020 BKN045
      TEMPO 3115/3117 VRB07KT 3SM SHRA BR OVC003
     FM311700 07005KT P6SM VCTS BKN060CB
     FM010000 03005KT P6SM OVC025
     FM010300 04006KT P6SM VCSH OVC020
     FM010600 04005KT 5SM -SHRA BR OVC017=


U.S. Dept. of Commerce
NOAA National Weather Service
1325 East West Highway
Silver Spring, MD 20910
E-mail: w-nws.webmaster@noaa.gov
Page last modified: May 16, 2007
NATIONAL WEATHER SERVICE: for Safety, for Work, for Fun - FOR LIFE